| time (UTC) | temp F | wind direction | speed knots | gust knots | rain 1hr in | rain 24hr in | rain mn in | humidity % | barometer mb |
| 20260506172503 | 61 | 219 | 2.6 | 9.6 | 0.07 | 0.08 | 0.08 | 91 | 1007.1 |
| 20260506172003 | 61 | 225 | 3.5 | 7.0 | 0.07 | 0.07 | 0.07 | 91 | 1007.1 |
| 20260506171521 | 61 | 225 | 2.6 | 7.8 | 0.07 | 0.07 | 0.07 | 91 | 1007.2 |
| 20260506171005 | 61 | 221 | 4.3 | 7.8 | 0.06 | 0.06 | 0.06 | 90 | 1007.3 |
| 20260506170504 | 61 | 221 | 2.6 | 10.4 | 0.05 | 0.05 | 0.05 | 90 | 1007.4 |
| 20260506170013 | 61 | 225 | 4.3 | 10.4 | 0.04 | 0.04 | 0.04 | 90 | 1007.4 |
| 20260506165503 | 61 | 229 | 5.2 | 8.7 | 0.04 | 0.04 | 0.04 | 90 | 1007.5 |
| 20260506165005 | 61 | 201 | 4.3 | 9.6 | 0.03 | 0.03 | 0.03 | 89 | 1007.3 |
| 20260506164512 | 62 | 203 | 4.3 | 10.4 | 0.02 | 0.02 | 0.02 | 88 | 1007.3 |
| 20260506164007 | 62 | 229 | 5.2 | 10.4 | 0.02 | 0.02 | 0.02 | 87 | 1007.3 |
| 20260506163502 | 62 | 220 | 5.2 | 10.4 | 0.01 | 0.01 | 0.01 | 87 | 1007.4 |
| 20260506163020 | 62 | 229 | 5.2 | 16.5 | 0.01 | 0.01 | 0.01 | 86 | 1007.4 |
| 20260506162503 | 62 | 203 | 7.0 | 16.5 | 0.01 | 0.01 | 0.01 | 85 | 1007.4 |
| 20260506162011 | 62 | 196 | 7.0 | 12.2 | 0.00 | 0.00 | 0.00 | 84 | 1007.4 |
| 20260506161520 | 62 | 205 | 7.0 | 14.8 | 0.00 | 0.00 | 0.00 | 84 | 1007.4 |
| 20260506161007 | 62 | 219 | 5.2 | 21.7 | 0.00 | 0.00 | 0.00 | 83 | 1007.5 |
| 20260506160505 | 63 | 205 | 11.3 | 20.9 | 0.00 | 0.00 | 0.00 | 82 | 1007.6 |
| 20260506160016 | 63 | 177 | 7.0 | 15.6 | 0.00 | 0.00 | 0.00 | 82 | 1007.6 |
| 20260506155506 | 63 | 214 | 7.8 | 17.4 | 0.00 | 0.00 | 0.00 | 81 | 1007.7 |
| 20260506155004 | 63 | 212 | 7.8 | 17.4 | 0.00 | 0.00 | 0.00 | 81 | 1007.7 |
| 20260506154512 | 63 | 190 | 8.7 | 14.8 | 0.00 | 0.00 | 0.00 | 81 | 1007.9 |
| 20260506154007 | 63 | 164 | 7.8 | 12.2 | 0.00 | 0.00 | 0.00 | 81 | 1008.0 |
| 20260506153506 | 63 | 200 | 6.1 | 12.2 | 0.00 | 0.00 | 0.00 | 80 | 1008.0 |
| 20260506153015 | 64 | 217 | 5.2 | 13.0 | 0.00 | 0.00 | 0.00 | 80 | 1008.0 |
| 20260506152506 | 64 | 221 | 7.0 | 13.0 | 0.00 | 0.00 | 0.00 | 78 | 1008.1 |
| 20260506152007 | 64 | 187 | 7.8 | 13.0 | 0.00 | 0.00 | 0.00 | 78 | 1008.1 |
| 20260506151517 | 64 | 209 | 6.1 | 12.2 | 0.00 | 0.00 | 0.00 | 78 | 1008.1 |
| 20260506151008 | 64 | 205 | 6.1 | 12.2 | 0.00 | 0.00 | 0.00 | 78 | 1008.1 |
| 20260506150503 | 63 | 236 | 5.2 | 10.4 | 0.00 | 0.00 | 0.00 | 79 | 1008.1 |
| 20260506150022 | 63 | 221 | 5.2 | 11.3 | 0.00 | 0.00 | 0.00 | 79 | 1008.3 |
| 20260506145505 | 63 | 202 | 6.1 | 13.0 | 0.00 | 0.00 | 0.00 | 79 | 1008.4 |
| 20260506145008 | 63 | 227 | 8.7 | 17.4 | 0.00 | 0.00 | 0.00 | 79 | 1008.4 |
| 20260506144516 | 63 | 189 | 9.6 | 17.4 | 0.00 | 0.00 | 0.00 | 79 | 1008.5 |
| 20260506144009 | 62 | 232 | 7.0 | 16.5 | 0.00 | 0.00 | 0.00 | 79 | 1008.4 |
| 20260506143506 | 62 | 189 | 9.6 | 16.5 | 0.00 | 0.00 | 0.00 | 79 | 1008.2 |
| 20260506143018 | 62 | 210 | 6.1 | 14.8 | 0.00 | 0.00 | 0.00 | 79 | 1008.4 |
| 20260506142509 | 62 | 231 | 9.6 | 14.8 | 0.00 | 0.00 | 0.00 | 78 | 1008.2 |
| 20260506142010 | 62 | 207 | 7.8 | 13.0 | 0.00 | 0.00 | 0.00 | 78 | 1008.2 |
| 20260506141517 | 62 | 236 | 7.0 | 17.4 | 0.00 | 0.00 | 0.00 | 78 | 1008.1 |
| 20260506141006 | 62 | 254 | 10.4 | 17.4 | 0.00 | 0.00 | 0.00 | 78 | 1008.4 |
| 20260506140507 | 62 | 231 | 7.8 | 15.6 | 0.00 | 0.00 | 0.00 | 78 | 1008.6 |
| 20260506140020 | 62 | 225 | 8.7 | 15.6 | 0.00 | 0.00 | 0.00 | 78 | 1008.4 |
| 20260506135507 | 62 | 219 | 7.0 | 14.8 | 0.00 | 0.00 | 0.00 | 79 | 1008.2 |
| 20260506135013 | 62 | 227 | 10.4 | 19.1 | 0.00 | 0.00 | 0.00 | 79 | 1008.1 |
| 20260506134543 | 62 | 231 | 10.4 | 19.1 | 0.00 | 0.00 | 0.00 | 79 | 1008.1 |
| 20260506133508 | 61 | 221 | 6.1 | 10.4 | 0.00 | 0.00 | 0.00 | 79 | 1008.1 |
| 20260506133022 | 61 | 221 | 3.5 | 10.4 | 0.00 | 0.00 | 0.00 | 81 | 1008.1 |
| 20260506132509 | 61 | 210 | 5.2 | 11.3 | 0.00 | 0.00 | 0.00 | 80 | 1007.9 |
| 20260506132007 | 61 | 224 | 5.2 | 11.3 | 0.00 | 0.00 | 0.00 | 81 | 1008.1 |
| 20260506131526 | 60 | 217 | 5.2 | 15.6 | 0.00 | 0.00 | 0.00 | 81 | 1008.2 |
| 20260506131008 | 60 | 221 | 7.8 | 15.6 | 0.00 | 0.00 | 0.00 | 81 | 1008.4 |
| 20260506130510 | 60 | 217 | 6.1 | 15.6 | 0.00 | 0.00 | 0.00 | 81 | 1008.5 |
| 20260506130020 | 60 | 203 | 9.6 | 16.5 | 0.00 | 0.00 | 0.00 | 81 | 1008.6 |
| 20260506125507 | 60 | 191 | 8.7 | 16.5 | 0.00 | 0.00 | 0.00 | 81 | 1008.6 |
| 20260506125008 | 60 | 208 | 7.0 | 20.0 | 0.00 | 0.00 | 0.00 | 81 | 1008.7 |
| 20260506124522 | 60 | 215 | 8.7 | 20.0 | 0.00 | 0.00 | 0.00 | 81 | 1008.7 |
| 20260506124007 | 60 | 189 | 8.7 | 16.5 | 0.00 | 0.00 | 0.00 | 81 | 1008.9 |
| 20260506123508 | 60 | 237 | 8.7 | 17.4 | 0.00 | 0.00 | 0.00 | 81 | 1008.9 |
| 20260506123020 | 60 | 203 | 8.7 | 17.4 | 0.00 | 0.00 | 0.00 | 81 | 1009.0 |
| 20260506122511 | 60 | 202 | 8.7 | 13.9 | 0.00 | 0.00 | 0.00 | 81 | 1008.8 |
| 20260506122007 | 60 | 229 | 7.0 | 13.9 | 0.00 | 0.00 | 0.00 | 81 | 1008.8 |
| 20260506121522 | 60 | 203 | 6.1 | 16.5 | 0.00 | 0.00 | 0.00 | 82 | 1008.7 |
| 20260506121009 | 60 | 203 | 7.8 | 16.5 | 0.00 | 0.00 | 0.00 | 81 | 1008.6 |
| 20260506120503 | 60 | 232 | 7.0 | 19.1 | 0.00 | 0.00 | 0.00 | 81 | 1008.4 |
| 20260506120025 | 60 | 219 | 10.4 | 18.2 | 0.00 | 0.00 | 0.00 | 82 | 1008.3 |
| 20260506115505 | 60 | 213 | 7.0 | 16.5 | 0.00 | 0.00 | 0.00 | 82 | 1008.3 |
| 20260506115012 | 60 | 198 | 8.7 | 15.6 | 0.00 | 0.00 | 0.00 | 82 | 1008.2 |
| 20260506114521 | 59 | 223 | 7.0 | 13.9 | 0.00 | 0.00 | 0.00 | 82 | 1008.6 |
| 20260506114006 | 59 | 205 | 7.8 | 13.0 | 0.00 | 0.00 | 0.00 | 83 | 1008.6 |
| 20260506113507 | 59 | 227 | 7.0 | 13.0 | 0.00 | 0.00 | 0.00 | 83 | 1008.6 |
| 20260506113019 | 59 | 178 | 6.1 | 13.0 | 0.00 | 0.00 | 0.00 | 83 | 1008.7 |
| 20260506112506 | 59 | 214 | 8.7 | 13.0 | 0.00 | 0.00 | 0.00 | 83 | 1008.8 |
| 20260506112014 | 59 | 213 | 6.1 | 11.3 | 0.00 | 0.00 | 0.00 | 84 | 1008.9 |
| 20260506111522 | 58 | 360 | 5.2 | 12.2 | 0.00 | 0.00 | 0.00 | 84 | 1008.9 |
| 20260506111006 | 58 | 232 | 4.3 | 12.2 | 0.00 | 0.00 | 0.00 | 84 | 1008.8 |
| 20260506110509 | 58 | 166 | 4.3 | 7.8 | 0.00 | 0.00 | 0.00 | 85 | 1008.7 |
| 20260506110026 | 57 | 209 | 1.7 | 7.0 | 0.00 | 0.00 | 0.00 | 86 | 1008.7 |
| 20260506105510 | 57 | 225 | 3.5 | 7.0 | 0.00 | 0.00 | 0.00 | 86 | 1008.8 |
| 20260506105010 | 57 | 236 | 3.5 | 7.0 | 0.00 | 0.00 | 0.00 | 87 | 1008.7 |
| 20260506104510 | 56 | 232 | 2.6 | 8.7 | 0.00 | 0.00 | 0.00 | 88 | 1008.7 |
| 20260506104002 | 54 | 221 | 4.3 | 8.7 | 0.00 | 0.00 | 0.00 | 89 | 1008.7 |
| 20260506103503 | 54 | 217 | 0.9 | 3.5 | 0.00 | 0.00 | 0.00 | 89 | 1008.7 |
| 20260506103022 | 54 | 119 | 0.9 | 3.5 | 0.00 | 0.00 | 0.00 | 89 | 1008.8 |
| 20260506102507 | 53 | 238 | 0.9 | 3.5 | 0.00 | 0.00 | 0.00 | 89 | 1008.8 |
| 20260506102010 | 53 | 238 | 0.9 | 3.5 | 0.00 | 0.00 | 0.00 | 89 | 1008.6 |
| 20260506101519 | 53 | 190 | 0.9 | 2.6 | 0.00 | 0.00 | 0.00 | 89 | 1008.7 |
| 20260506101007 | 53 | 227 | 0.9 | 3.5 | 0.00 | 0.00 | 0.00 | 89 | 1008.7 |
| 20260506100506 | 53 | 243 | 0.9 | 4.3 | 0.00 | 0.00 | 0.00 | 89 | 1008.6 |
| 20260506100031 | 52 | 238 | 1.7 | 4.3 | 0.00 | 0.00 | 0.00 | 89 | 1008.6 |
| 20260506095507 | 52 | 221 | 0.0 | 1.7 | 0.00 | 0.00 | 0.00 | 90 | 1008.6 |
| 20260506095009 | 52 | 325 | 0.0 | 1.7 | 0.00 | 0.00 | 0.00 | 90 | 1008.7 |
| 20260506094524 | 52 | 26 | 0.9 | 1.7 | 0.00 | 0.00 | 0.00 | 89 | 1008.6 |
| 20260506094009 | 52 | 80 | 0.0 | 1.7 | 0.00 | 0.00 | 0.00 | 89 | 1008.6 |
| 20260506093509 | 52 | 221 | 0.0 | 1.7 | 0.00 | 0.00 | 0.00 | 89 | 1008.6 |
| 20260506093013 | 52 | 238 | 0.9 | 1.7 | 0.00 | 0.00 | 0.00 | 89 | 1008.6 |
| 20260506092507 | 52 | 265 | 0.0 | 1.7 | 0.00 | 0.00 | 0.00 | 89 | 1008.5 |
| 20260506092007 | 53 | 221 | 0.0 | 1.7 | 0.00 | 0.00 | 0.00 | 89 | 1008.6 |
| 20260506091519 | 53 | 238 | 0.0 | 1.7 | 0.00 | 0.00 | 0.00 | 88 | 1008.5 |
| 20260506091003 | 53 | 221 | 0.0 | 1.7 | 0.00 | 0.00 | 0.00 | 88 | 1008.7 |
| 20260506090502 | 53 | 238 | 0.0 | 2.6 | 0.00 | 0.00 | 0.00 | 88 | 1008.7 |
| 20260506090006 | 53 | 247 | 0.0 | 2.6 | 0.00 | 0.00 | 0.00 | 88 | 1008.7 |
| 20260506085501 | 53 | 279 | 0.0 | 1.7 | 0.00 | 0.00 | 0.00 | 87 | 1008.6 |
| 20260506085003 | 54 | 298 | 0.9 | 1.7 | 0.00 | 0.00 | 0.00 | 87 | 1008.6 |
| 20260506084504 | 54 | 9 | 0.0 | 1.7 | 0.00 | 0.00 | 0.00 | 87 | 1008.6 |
| 20260506084004 | 54 | 178 | 0.0 | 1.7 | 0.00 | 0.00 | 0.00 | 86 | 1008.6 |
| 20260506083504 | 54 | 51 | 0.0 | 1.7 | 0.00 | 0.00 | 0.00 | 86 | 1008.8 |
| 20260506083011 | 54 | 221 | 0.0 | 1.7 | 0.00 | 0.00 | 0.00 | 86 | 1008.8 |
| 20260506082506 | 54 | 221 | 0.9 | 2.6 | 0.00 | 0.00 | 0.00 | 85 | 1008.7 |
| 20260506082006 | 55 | 243 | 0.9 | 2.6 | 0.00 | 0.00 | 0.00 | 86 | 1008.7 |
| 20260506081521 | 54 | 265 | 1.7 | 2.6 | 0.00 | 0.00 | 0.00 | 84 | 1008.7 |
| 20260506081010 | 55 | 247 | 1.7 | 2.6 | 0.00 | 0.00 | 0.00 | 83 | 1008.7 |
| 20260506080507 | 56 | 265 | 0.9 | 2.6 | 0.00 | 0.00 | 0.00 | 83 | 1008.7 |
| 20260506073506 | 58 | 93 | 0.9 | 3.5 | 0.00 | 0.00 | 0.00 | 78 | 1008.9 |
| 20260506073007 | 58 | 9 | 1.7 | 3.5 | 0.00 | 0.00 | 0.00 | 78 | 1009.1 |
| 20260506072504 | 58 | 243 | 0.9 | 4.3 | 0.00 | 0.00 | 0.00 | 78 | 1009.0 |
| 20260506072004 | 59 | 282 | 0.9 | 4.3 | 0.00 | 0.00 | 0.00 | 77 | 1008.9 |
| 20260506071513 | 59 | 205 | 1.7 | 4.3 | 0.00 | 0.00 | 0.00 | 77 | 1008.9 |
| 20260506071009 | 59 | 178 | 0.9 | 4.3 | 0.00 | 0.00 | 0.00 | 77 | 1008.8 |
| 20260506070504 | 59 | 137 | 1.7 | 4.3 | 0.00 | 0.00 | 0.00 | 77 | 1008.9 |
| 20260506062503 | 60 | 190 | 1.7 | 3.5 | 0.00 | 0.00 | 0.00 | 73 | 1008.7 |
| 20260506062003 | 60 | 212 | 1.7 | 3.5 | 0.00 | 0.00 | 0.00 | 72 | 1008.7 |
| 20260506061511 | 61 | 188 | 1.7 | 4.3 | 0.00 | 0.00 | 0.00 | 72 | 1008.7 |
| 20260506061004 | 61 | 221 | 1.7 | 6.1 | 0.00 | 0.00 | 0.00 | 72 | 1008.8 |
| 20260506060506 | 61 | 232 | 2.6 | 7.8 | 0.00 | 0.00 | 0.00 | 70 | 1008.8 |
| 20260506051003 | 63 | 201 | 7.0 | 13.0 | 0.00 | 0.00 | 0.00 | 67 | 1008.9 |
| 20260506050504 | 63 | 223 | 7.0 | 13.0 | 0.00 | 0.00 | 0.00 | 67 | 1008.9 |
| 20260506045004 | 63 | 196 | 5.2 | 12.2 | 0.00 | 0.00 | 0.00 | 66 | 1008.9 |
| 20260506044518 | 64 | 195 | 5.2 | 12.2 | 0.00 | 0.00 | 0.00 | 66 | 1008.9 |
| 20260506044008 | 64 | 168 | 7.8 | 16.5 | 0.00 | 0.00 | 0.00 | 65 | 1009.0 |
| 20260506043508 | 64 | 208 | 6.1 | 16.5 | 0.00 | 0.00 | 0.00 | 65 | 1008.9 |
| 20260506043026 | 64 | 170 | 8.7 | 18.2 | 0.00 | 0.00 | 0.00 | 65 | 1009.0 |
| 20260506042508 | 64 | 207 | 11.3 | 18.2 | 0.00 | 0.00 | 0.00 | 65 | 1008.9 |
| 20260506042012 | 65 | 236 | 7.0 | 16.5 | 0.00 | 0.00 | 0.00 | 65 | 1008.9 |
| 20260506041523 | 65 | 211 | 7.8 | 16.5 | 0.00 | 0.00 | 0.00 | 65 | 1008.9 |
| 20260506041010 | 65 | 187 | 7.0 | 15.6 | 0.00 | 0.00 | 0.00 | 65 | 1008.8 |
| 20260506040509 | 65 | 196 | 8.7 | 13.9 | 0.00 | 0.00 | 0.00 | 65 | 1008.9 |
| 20260506040008 | 65 | 196 | 7.8 | 15.6 | 0.00 | 0.00 | 0.00 | 65 | 1008.9 |
| 20260506035503 | 65 | 221 | 8.7 | 15.6 | 0.00 | 0.00 | 0.00 | 65 | 1008.9 |
| 20260506035004 | 65 | 202 | 6.1 | 14.8 | 0.00 | 0.00 | 0.00 | 66 | 1008.9 |
| 20260506034512 | 65 | 196 | 7.0 | 19.1 | 0.00 | 0.00 | 0.00 | 65 | 1008.8 |
| 20260506034007 | 66 | 220 | 8.7 | 19.1 | 0.00 | 0.00 | 0.00 | 65 | 1009.0 |
| 20260506033508 | 66 | 196 | 9.6 | 17.4 | 0.00 | 0.00 | 0.00 | 65 | 1008.9 |
| 20260506033028 | 66 | 184 | 7.8 | 12.2 | 0.00 | 0.00 | 0.00 | 66 | 1008.8 |
| 20260506032509 | 66 | 194 | 6.1 | 10.4 | 0.00 | 0.00 | 0.00 | 66 | 1008.7 |
| 20260506032009 | 66 | 182 | 5.2 | 9.6 | 0.00 | 0.00 | 0.00 | 66 | 1008.8 |
| 20260506031529 | 66 | 217 | 5.2 | 10.4 | 0.00 | 0.00 | 0.00 | 66 | 1008.8 |
| 20260506031009 | 66 | 234 | 5.2 | 12.2 | 0.00 | 0.00 | 0.00 | 66 | 1008.9 |
| 20260506030507 | 67 | 203 | 7.0 | 12.2 | 0.00 | 0.00 | 0.00 | 65 | 1008.8 |
| 20260506030025 | 66 | 212 | 7.0 | 13.0 | 0.00 | 0.00 | 0.00 | 66 | 1008.8 |
| 20260506025511 | 66 | 225 | 7.8 | 14.8 | 0.00 | 0.00 | 0.00 | 67 | 1008.8 |
| 20260506025011 | 67 | 225 | 5.2 | 14.8 | 0.00 | 0.00 | 0.00 | 67 | 1008.6 |
| 20260506024537 | 67 | 194 | 6.1 | 13.0 | 0.00 | 0.00 | 0.00 | 67 | 1008.7 |
| 20260506024004 | 67 | 186 | 5.2 | 9.6 | 0.00 | 0.00 | 0.00 | 68 | 1008.7 |
| 20260506023504 | 67 | 175 | 4.3 | 11.3 | 0.00 | 0.00 | 0.00 | 68 | 1008.6 |
| 20260506023015 | 67 | 221 | 6.1 | 12.2 | 0.00 | 0.00 | 0.00 | 68 | 1008.6 |
| 20260506022506 | 66 | 209 | 5.2 | 12.2 | 0.00 | 0.00 | 0.00 | 69 | 1008.5 |
| 20260506022013 | 66 | 148 | 5.2 | 10.4 | 0.00 | 0.00 | 0.00 | 70 | 1008.6 |
| 20260506021522 | 66 | 212 | 5.2 | 13.9 | 0.00 | 0.00 | 0.00 | 71 | 1008.8 |
| 20260506021007 | 66 | 210 | 6.1 | 13.9 | 0.00 | 0.00 | 0.00 | 72 | 1008.8 |
| 20260506020508 | 65 | 224 | 6.1 | 9.6 | 0.00 | 0.00 | 0.00 | 73 | 1009.0 |
| 20260506020025 | 66 | 219 | 2.6 | 6.1 | 0.00 | 0.00 | 0.00 | 72 | 1008.9 |
| 20260506015511 | 66 | 265 | 2.6 | 6.1 | 0.00 | 0.00 | 0.00 | 72 | 1008.9 |
| 20260506015011 | 66 | 280 | 0.9 | 2.6 | 0.00 | 0.00 | 0.00 | 72 | 1008.6 |
| 20260506014527 | 66 | 282 | 0.9 | 2.6 | 0.00 | 0.00 | 0.00 | 71 | 1008.5 |
| 20260506014011 | 66 | 265 | 0.0 | 2.6 | 0.00 | 0.00 | 0.00 | 69 | 1008.3 |
| 20260506013508 | 67 | 178 | 0.0 | 6.1 | 0.00 | 0.00 | 0.00 | 67 | 1008.2 |
| 20260506013031 | 67 | 265 | 1.7 | 7.8 | 0.00 | 0.00 | 0.00 | 66 | 1008.2 |
| 20260506012505 | 67 | 236 | 2.6 | 7.8 | 0.00 | 0.00 | 0.00 | 68 | 1008.3 |
| 20260506012007 | 67 | 219 | 4.3 | 7.0 | 0.00 | 0.00 | 0.00 | 68 | 1008.1 |
| 20260506011541 | 67 | 210 | 3.5 | 6.1 | 0.00 | 0.00 | 0.00 | 69 | 1007.9 |
| 20260506011007 | 67 | 194 | 3.5 | 6.1 | 0.00 | 0.00 | 0.00 | 68 | 1007.8 |
| 20260506010511 | 67 | 219 | 4.3 | 6.1 | 0.00 | 0.00 | 0.00 | 67 | 1007.9 |
| 20260506010023 | 67 | 219 | 2.6 | 4.3 | 0.00 | 0.00 | 0.00 | 69 | 1007.8 |
| 20260506005509 | 67 | 265 | 0.9 | 4.3 | 0.00 | 0.00 | 0.00 | 67 | 1007.8 |
| 20260506005008 | 68 | 243 | 1.7 | 4.3 | 0.00 | 0.00 | 0.00 | 67 | 1007.8 |
| 20260506004526 | 68 | 265 | 2.6 | 4.3 | 0.00 | 0.00 | 0.00 | 64 | 1007.8 |
| 20260506004010 | 68 | 178 | 2.6 | 4.3 | 0.00 | 0.00 | 0.00 | 66 | 1007.8 |
| 20260506003512 | 68 | 221 | 0.0 | 2.6 | 0.00 | 0.00 | 0.00 | 65 | 1007.6 |
| 20260506003013 | 68 | 67 | 0.9 | 2.6 | 0.00 | 0.00 | 0.00 | 64 | 1007.7 |
| 20260506002504 | 69 | 247 | 0.0 | 5.2 | 0.00 | 0.00 | 0.00 | 64 | 1007.9 |
| 20260506002002 | 69 | 9 | 2.6 | 5.2 | 0.00 | 0.00 | 0.00 | 62 | 1007.9 |
| 20260506001504 | 69 | 216 | 2.6 | 5.2 | 0.00 | 0.00 | 0.00 | 63 | 1007.9 |
| 20260506001006 | 70 | 221 | 0.9 | 6.1 | 0.00 | 0.00 | 0.00 | 60 | 1007.7 |
| 20260506000506 | 70 | 163 | 2.6 | 6.1 | 0.00 | 0.00 | 0.00 | 58 | 1007.6 |
| 20260506000002 | 70 | 238 | 1.7 | 7.0 | 0.00 | 0.00 | 0.00 | 61 | 1007.5 |
| 20260505235502 | 70 | 30 | 1.7 | 7.0 | 0.00 | 0.00 | 0.00 | 60 | 1007.5 |
| 20260505235003 | 70 | 141 | 2.6 | 5.2 | 0.00 | 0.00 | 0.00 | 60 | 1007.6 |
| 20260505234538 | 70 | 170 | 1.7 | 4.3 | 0.00 | 0.00 | 0.00 | 61 | 1007.5 |
| 20260505234005 | 70 | 178 | 1.7 | 3.5 | 0.00 | 0.00 | 0.00 | 62 | 1007.4 |
| 20260505233502 | 70 | 93 | 1.7 | 8.7 | 0.00 | 0.00 | 0.00 | 61 | 1007.2 |
| 20260505233028 | 70 | 9 | 1.7 | 8.7 | 0.00 | 0.00 | 0.00 | 60 | 1007.0 |
| 20260505232505 | 70 | 43 | 2.6 | 7.0 | 0.00 | 0.00 | 0.00 | 60 | 1006.9 |
| 20260505232004 | 70 | 9 | 2.6 | 7.8 | 0.00 | 0.00 | 0.00 | 59 | 1006.7 |
| 20260505231514 | 71 | 32 | 2.6 | 11.3 | 0.00 | 0.00 | 0.00 | 59 | 1006.8 |
| 20260505231006 | 71 | 71 | 4.3 | 20.9 | 0.00 | 0.00 | 0.00 | 56 | 1006.9 |
| 20260505230501 | 72 | 53 | 7.0 | 20.9 | 0.00 | 0.00 | 0.00 | 55 | 1006.9 |
| 20260505230008 | 74 | 50 | 6.1 | 16.5 | 0.00 | 0.00 | 0.00 | 52 | 1006.4 |
| 20260505225505 | 75 | 321 | 5.2 | 16.5 | 0.00 | 0.00 | 0.00 | 47 | 1006.4 |
| 20260505225009 | 76 | 334 | 7.8 | 22.6 | 0.00 | 0.00 | 0.00 | 45 | 1006.4 |
| 20260505224538 | 77 | 209 | 12.2 | 26.1 | 0.00 | 0.00 | 0.00 | 45 | 1005.4 |
| 20260505224003 | 77 | 211 | 12.2 | 26.1 | 0.00 | 0.00 | 0.00 | 45 | 1005.2 |
| 20260505223513 | 77 | 221 | 12.2 | 21.7 | 0.00 | 0.00 | 0.00 | 45 | 1004.9 |
| 20260505223005 | 78 | 237 | 10.4 | 21.7 | 0.00 | 0.00 | 0.00 | 43 | 1004.7 |
| 20260505222505 | 79 | 238 | 12.2 | 22.6 | 0.00 | 0.00 | 0.00 | 41 | 1004.6 |
| 20260505222005 | 80 | 211 | 13.0 | 22.6 | 0.00 | 0.00 | 0.00 | 38 | 1004.5 |
| 20260505221510 | 81 | 210 | 13.9 | 26.9 | 0.00 | 0.00 | 0.00 | 32 | 1004.4 |
| 20260505221006 | 81 | 234 | 13.9 | 30.4 | 0.00 | 0.00 | 0.00 | 31 | 1004.5 |
| 20260505220507 | 81 | 232 | 14.8 | 30.4 | 0.00 | 0.00 | 0.00 | 30 | 1004.2 |
| 20260505220015 | 81 | 177 | 17.4 | 37.4 | 0.00 | 0.00 | 0.00 | 29 | 1003.9 |
| 20260505215505 | 81 | 200 | 11.3 | 37.4 | 0.00 | 0.00 | 0.00 | 30 | 1004.2 |
| 20260505215007 | 81 | 212 | 12.2 | 30.4 | 0.00 | 0.00 | 0.00 | 30 | 1004.2 |
| 20260505214504 | 81 | 185 | 15.6 | 30.4 | 0.00 | 0.00 | 0.00 | 30 | 1004.2 |
| 20260505214003 | 82 | 198 | 11.3 | 26.9 | 0.00 | 0.00 | 0.00 | 30 | 1004.1 |
| 20260505213506 | 82 | 208 | 15.6 | 28.7 | 0.00 | 0.00 | 0.00 | 29 | 1004.2 |
| 20260505213006 | 83 | 213 | 15.6 | 28.7 | 0.00 | 0.00 | 0.00 | 30 | 1004.2 |
| 20260505212509 | 83 | 219 | 14.8 | 26.1 | 0.00 | 0.00 | 0.00 | 30 | 1004.0 |
| 20260505212006 | 82 | 247 | 15.6 | 26.1 | 0.00 | 0.00 | 0.00 | 30 | 1004.0 |
| 20260505211518 | 82 | 259 | 13.9 | 28.7 | 0.00 | 0.00 | 0.00 | 30 | 1003.8 |
| 20260505211003 | 82 | 219 | 16.5 | 28.7 | 0.00 | 0.00 | 0.00 | 30 | 1003.7 |
| 20260505210505 | 82 | 207 | 12.2 | 27.8 | 0.00 | 0.00 | 0.00 | 30 | 1003.7 |
| 20260505210014 | 82 | 223 | 11.3 | 28.7 | 0.00 | 0.00 | 0.00 | 31 | 1003.7 |
| 20260505205509 | 82 | 194 | 15.6 | 41.7 | 0.00 | 0.00 | 0.00 | 31 | 1003.7 |
| 20260505205006 | 82 | 219 | 17.4 | 41.7 | 0.00 | 0.00 | 0.00 | 30 | 1003.6 |
| 20260505204519 | 82 | 208 | 15.6 | 37.4 | 0.00 | 0.00 | 0.00 | 31 | 1003.7 |
| 20260505204010 | 82 | 203 | 17.4 | 36.5 | 0.00 | 0.00 | 0.00 | 31 | 1003.6 |
| 20260505203506 | 83 | 223 | 16.5 | 36.5 | 0.00 | 0.00 | 0.00 | 31 | 1003.6 |
| 20260505203008 | 82 | 173 | 10.4 | 31.3 | 0.00 | 0.00 | 0.00 | 31 | 1003.7 |
| 20260505202503 | 83 | 241 | 17.4 | 31.3 | 0.00 | 0.00 | 0.00 | 32 | 1003.7 |
| 20260505202003 | 83 | 219 | 17.4 | 39.1 | 0.00 | 0.00 | 0.00 | 31 | 1003.7 |
| 20260505201506 | 83 | 223 | 20.9 | 40.8 | 0.00 | 0.00 | 0.00 | 31 | 1003.8 |
| 20260505201011 | 84 | 189 | 18.2 | 40.8 | 0.00 | 0.00 | 0.00 | 31 | 1003.8 |
| 20260505200503 | 84 | 215 | 17.4 | 33.0 | 0.00 | 0.00 | 0.00 | 31 | 1003.9 |
| 20260505200009 | 83 | 219 | 15.6 | 33.0 | 0.00 | 0.00 | 0.00 | 32 | 1004.0 |
| 20260505195505 | 83 | 221 | 16.5 | 33.0 | 0.00 | 0.00 | 0.00 | 32 | 1003.9 |
| 20260505195003 | 83 | 215 | 12.2 | 33.0 | 0.00 | 0.00 | 0.00 | 32 | 1004.0 |
| 20260505194517 | 83 | 223 | 14.8 | 35.6 | 0.00 | 0.00 | 0.00 | 31 | 1004.0 |
| 20260505194007 | 83 | 223 | 20.9 | 35.6 | 0.00 | 0.00 | 0.00 | 31 | 1004.2 |
| 20260505193510 | 83 | 225 | 15.6 | 32.2 | 0.00 | 0.00 | 0.00 | 31 | 1004.2 |
| 20260505193025 | 83 | 182 | 10.4 | 33.0 | 0.00 | 0.00 | 0.00 | 31 | 1004.2 |
| 20260505192507 | 83 | 156 | 11.3 | 33.0 | 0.00 | 0.00 | 0.00 | 31 | 1004.2 |
| 20260505192010 | 83 | 221 | 14.8 | 32.2 | 0.00 | 0.00 | 0.00 | 31 | 1004.3 |
| 20260505191507 | 83 | 232 | 17.4 | 32.2 | 0.00 | 0.00 | 0.00 | 30 | 1004.2 |
| 20260505191007 | 83 | 213 | 9.6 | 28.7 | 0.00 | 0.00 | 0.00 | 31 | 1004.1 |
| 20260505190503 | 83 | 219 | 19.1 | 32.2 | 0.00 | 0.00 | 0.00 | 31 | 1004.2 |
| 20260505190007 | 83 | 167 | 17.4 | 33.9 | 0.00 | 0.00 | 0.00 | 33 | 1004.3 |
| 20260505185514 | 82 | 231 | 22.6 | 33.9 | 0.00 | 0.00 | 0.00 | 34 | 1004.4 |
| 20260505185004 | 82 | 191 | 16.5 | 24.3 | 0.00 | 0.00 | 0.00 | 37 | 1004.5 |
| 20260505184519 | 82 | 205 | 13.9 | 25.2 | 0.00 | 0.00 | 0.00 | 37 | 1004.4 |
| 20260505184008 | 83 | 209 | 14.8 | 27.8 | 0.00 | 0.00 | 0.00 | 37 | 1004.4 |
| 20260505183508 | 83 | 157 | 13.9 | 32.2 | 0.00 | 0.00 | 0.00 | 37 | 1004.5 |
| 20260505183020 | 83 | 227 | 13.9 | 32.2 | 0.00 | 0.00 | 0.00 | 38 | 1004.6 |
| 20260505182507 | 82 | 210 | 13.9 | 30.4 | 0.00 | 0.00 | 0.00 | 35 | 1004.6 |
| 20260505182012 | 81 | 216 | 18.2 | 30.4 | 0.00 | 0.00 | 0.00 | 37 | 1005.1 |
| 20260505181523 | 82 | 219 | 13.9 | 24.3 | 0.00 | 0.00 | 0.00 | 40 | 1004.9 |
| 20260505181012 | 82 | 207 | 13.9 | 26.1 | 0.00 | 0.00 | 0.00 | 38 | 1005.1 |
| 20260505180507 | 81 | 221 | 15.6 | 26.1 | 0.00 | 0.00 | 0.00 | 38 | 1005.2 |
| 20260505180034 | 81 | 141 | 13.0 | 26.1 | 0.00 | 0.00 | 0.00 | 38 | 1005.2 |
| 20260505175503 | 82 | 207 | 16.5 | 26.9 | 0.00 | 0.00 | 0.00 | 38 | 1005.2 |
| 20260505175007 | 82 | 207 | 13.9 | 31.3 | 0.00 | 0.00 | 0.00 | 38 | 1005.2 |
| 20260505174512 | 82 | 246 | 16.5 | 33.0 | 0.00 | 0.00 | 0.00 | 38 | 1005.2 |
| 20260505174011 | 82 | 214 | 15.6 | 33.0 | 0.00 | 0.00 | 0.00 | 38 | 1005.4 |
| 20260505173510 | 82 | 137 | 9.6 | 20.9 | 0.00 | 0.00 | 0.00 | 39 | 1005.3 |
| 20260505173031 | 82 | 198 | 13.9 | 23.5 | 0.00 | 0.00 | 0.00 | 38 | 1005.4 |